Weather History for Rapid City, SD

Change the Weather History Date:

Sunday, January 13, 2013

  Actual Average Record
Temperature  
Mean Temperature 9 °F 25 °F  
Max Temperature 19 °F 37 °F 62 °F (1983)
Min Temperature -2 °F 13 °F -16 °F (1972)
Degree Days  
Heating Degree Days 56 40  
Month to date heating degree days 511 522  
Since 1 July heating degree days 3258 3438  
Cooling Degree Days 0 0  
Month to date cooling degree days 0 0  
Year to date cooling degree days 0 0  
Moisture  
Dew Point 1 °F    
Average Humidity 69    
Maximum Humidity 86    
Minimum Humidity 51    
Precipitation  
Precipitation T in 0.01 in 0.14 in (1994)
Month to date precipitation 0.20 0.14  
Year to date precipitation 0.20 0.14  
Snow  
Snow T in 0.20 in - ()
Month to date snowfall 3.3 1.9  
Since 1 July snowfall 12.9 15.1  
Snow Depth 3.00 in    
Sea Level Pressure  
Sea Level Pressure 30.30 in    
Wind  
Wind Speed 4 mph (WNW)    
Max Wind Speed 20 mph    
Max Gust Speed 24 mph    
Visibility 10 miles    
Events      
T = Trace of Precipitation, MM = Missing Value Source: NWS Daily Summary

Daily Weather History Graph

Daily Weather History Graph

Search for Another Location

Airport:

Trip Planner

Search our weather history database for the weather conditions in past years. The results will help you decide how hot, cold, wet, or windy it might be!

Date:

Astronomy

Jan. 13, 2013 Rise Set
Actual Time 7:24 AM MST 4:37 PM MST
Civil Twilight 6:52 AM MST 5:10 PM MST
Nautical Twilight 6:16 AM MST 5:45 PM MST
Astronomical Twilight 5:42 AM MST 6:20 PM MST
Moon 8:18 AM MST (1/13) 7:25 PM MST (1/13)
Length of Visible Light 10h 17m
Length of Day
9h 13m
Waxing Crescent, 5% of the Moon is Illuminated
Jan 13
Waxing Crescent
Jan 18
First Quarter
Jan 26
Full
Feb 3
Last Quarter
Feb 10
New

Hourly Weather History & Observations

Time (MST) Temp. Windchill Dew Point Humidity Pressure Visibility Wind Dir Wind Speed Gust Speed Precip Events Conditions
12:52 AM 9.0 °F -0.9 °F -0.0 °F 67% 30.29 in 10.0 mi North 5.8 mph - 0.00 in   Overcast
1:52 AM 6.1 °F -0.9 °F -2.0 °F 69% 30.31 in 10.0 mi NNW 3.5 mph - N/A   Overcast
2:52 AM 7.0 °F - 1.0 °F 77% 30.29 in 10.0 mi Calm Calm - N/A   Overcast
3:52 AM 7.0 °F - 1.9 °F 80% 30.27 in 10.0 mi Calm Calm - N/A   Overcast
4:52 AM 5.0 °F -4.1 °F -0.9 °F 76% 30.27 in 10.0 mi WNW 4.6 mph - N/A   Overcast
5:52 AM 6.1 °F - -0.0 °F 76% 30.28 in 10.0 mi Calm Calm - N/A   Overcast
6:52 AM 5.0 °F - -0.0 °F 80% 30.30 in 10.0 mi Calm Calm - N/A   Overcast
7:52 AM 8.1 °F - 1.9 °F 76% 30.31 in 10.0 mi Calm Calm - 0.00 in   Overcast
8:52 AM 8.1 °F - 1.0 °F 73% 30.32 in 10.0 mi Calm Calm - N/A   Overcast
9:52 AM 10.9 °F - 3.0 °F 70% 30.31 in 10.0 mi Calm Calm - N/A   Partly Cloudy
10:52 AM 10.9 °F 4.7 °F 3.0 °F 70% 30.30 in 10.0 mi SSE 3.5 mph - N/A   Mostly Cloudy
11:52 AM 15.1 °F 7.7 °F 5.0 °F 64% 30.27 in 10.0 mi SSW 4.6 mph - N/A   Mostly Cloudy
12:52 PM 16.0 °F 10.4 °F 3.9 °F 59% 30.25 in 10.0 mi WSW 3.5 mph - N/A   Overcast
1:52 PM 19.0 °F 4.5 °F 5.0 °F 54% 30.25 in 10.0 mi NNW 16.1 mph - N/A   Overcast
2:52 PM 17.1 °F 1.5 °F 5.0 °F 59% 30.27 in 10.0 mi NNW 17.3 mph - N/A   Overcast
3:52 PM 15.1 °F 2.5 °F 3.9 °F 61% 30.29 in 10.0 mi NNW 10.4 mph - N/A   Mostly Cloudy
4:52 PM 7.0 °F -6.6 °F -0.0 °F 73% 30.31 in 10.0 mi North 9.2 mph - N/A   Clear
5:52 PM 9.0 °F -0.9 °F 1.9 °F 73% 30.31 in 10.0 mi SW 5.8 mph - N/A   Clear
6:52 PM 3.9 °F -3.4 °F -0.9 °F 80% 30.33 in 10.0 mi West 3.5 mph - N/A   Scattered Clouds
7:52 PM 1.0 °F - -4.0 °F 79% 30.33 in 10.0 mi Calm Calm - N/A   Clear
8:52 PM 8.1 °F 1.4 °F -2.0 °F 64% 30.32 in 10.0 mi West 3.5 mph - N/A   Overcast
9:52 PM 9.0 °F - -0.9 °F 64% 30.31 in 10.0 mi Calm Calm - N/A   Overcast
10:52 PM 9.0 °F - -0.0 °F 67% 30.32 in 10.0 mi Calm Calm - N/A   Overcast
11:52 PM 8.1 °F - -0.9 °F 67% 30.31 in 10.0 mi Calm Calm - N/A   Clear